Location: Eboldshausen
(51.7766°N, 10.0050°E)
Time: 07:26:14
(UTC+00:00)

USA 215 - Pass Details

Date: 15 November 2025
Orbit: 1101 x 1106 km, 123.0° (Epoch: 10 December)

Event Time Altitude Azimuth Distance (km) Brightness Sun altitude
Rises 16:27:31 0° 136° (SE) 3,913 5.9 -9.0°
Reaches altitude 10° 16:30:03 10° 141° (SE) 2,959 5.3 -9.4°
Maximum altitude 16:36:28 57° 219° (SW) 1,290 4.0 -10.3°
Drops below altitude 10° 16:42:55 10° 297° (WNW) 2,973 6.3 -11.3°
Sets 16:45:28 0° 302° (WNW) 3,934 6.9 -11.7°
